Hovedside
METAR-TAF:

METAR-TAF

Lufthavner :

Scappoose Industrial Airpark

Scappoose, Oregon, USA

breddegrad: 45-46-09N, lengdegrad: 122-51-44W, høyde over havet: 16 m

Gjeldene værobservasjon

Denne rapporten ble laget for 43 minutter siden, klokken 11:53 UTC
Vind 6 kt fra Sør-sørøst
Temperatur 11°C
Luftfuktighet 82%
Trykk 1020 hPa
Sikt: 16.1 km
Overskyet i en høyde av 1200 ft

METAR: KSPB 231153Z AUTO 16006KT 10SM OVC012 11/08 A3012 RMK AO2 RAE1055 SLP198 P0000 60009 70037 T01110083 10111 20089 58020

Tid: 04:36 (12:36 UTC)


TAF: fraværende

Værobservasjoner og værvarsel for over 4000 flyplasser (METAR- og TAF-rapporter).

Tilgjengelige stasjoner er representert av de røde og gule prikkene på kartet.

Hold musepekeren over prikken for å se navnet på stasjonen.

Klikk så for å se værobservasjoner og -varsler.

For å forandre kartet kan du klikke på den grønne knappen med svart kryss for å zoome inn, på den grønne knappen med strek for å zoome ut, eller på de grønne pilene for å se tilstøtende kart.


METAR-TAF: